Flag for Germany Weather past 2 weeks in Lampertheim, Hesse, Germany

Now
70 °F

Sunny.


Feels Like: 70 °F
Forecast: 67 / 90 °F
Wind: 3 mph from North

Location: Baden Wurttemberg - Neuostheim

Current Time: Aug 30, 2015 at 8:52:02 AM

Latest Report: Aug 30, 2015 at 7:50 AM


Visibility: 6 mi

Pressure: 30.07 "Hg

Humidity: 94%

Dew point: 68 °F

Location of LampertheimLocation

Historic Weather in Lampertheim — Graph

°F

Lampertheim temperature yesterday

Maximum temperature yesterday: 88 °F (at 4:20 PM)
Minimum temperature yesterday: 63 °F (at 7:20 AM)
Average temperature yesterday: 79 °F

Past Weeks' High & Low Weather Summary

 TemperatureHumidityPressure
High90 °F (Aug 27, 4:20 PM)100% (Aug 17, 9:20 PM)30.27 "Hg (Aug 17, 9:20 PM)
Low54 °F (Aug 19, 5:20 AM)23% (Aug 22, 2:50 PM)29.68 "Hg (Aug 23, 4:50 PM)
Average69 °F63%30.00 "Hg
* Reported Aug 15 7:50 AM — Aug 30 7:20 AM, Lampertheim, Weather by CustomWeather, © 2015

Note: Actual official high and low records may vary slightly from our data, if they occured in-between our weather recording intervals... More about our weather records

Advertising

Lampertheim weather history for previous 24 hours

 ConditionsComfort  
Time TempWeatherWind HumidityBarometerVisibility
7:20 AM
Sun, Aug 30
68 °FClear.2 mph100%30.07 "Hg4 mi
7:20 PM
Sat, Aug 29
86 °FSunny.3 mph46%30.07 "Hg10 mi
6:50 PM88 °FSunny.2 mph40%30.07 "Hg10 mi
6:20 PM88 °FSunny.2 mph40%30.09 "Hg10 mi
5:50 PM88 °FSunny.2 mph43%30.09 "Hg10 mi
5:20 PM88 °FSunny.2 mph40%30.09 "Hg10 mi
4:50 PM88 °FSunny.3 mph43%30.09 "Hg10 mi
4:20 PM88 °FSunny.2 mph43%30.12 "Hg10 mi
3:50 PM86 °FSunny.2 mph46%30.12 "Hg10 mi
3:20 PM84 °FSunny.3 mph51%30.12 "Hg10 mi
2:50 PM84 °FPassing clouds.6 mph55%30.15 "HgN/A
2:20 PM82 °FSunny.2 mph55%30.15 "Hg10 mi
1:50 PM82 °FSunny.3 mph55%30.15 "Hg10 mi
1:20 PM81 °FSunny.3 mph58%30.18 "Hg10 mi
12:50 PM81 °FSunny.2 mph62%30.18 "Hg10 mi
11:50 AM77 °FSunny.3 mph65%30.18 "Hg10 mi
11:20 AM75 °FSunny.3 mph69%30.18 "Hg10 mi
10:50 AM73 °FSunny.2 mph74%30.18 "Hg10 mi
9:50 AM68 °FMild.5 mph83%30.18 "HgN/A
9:20 AM66 °FSunny.6 mph88%30.21 "Hg10 mi
8:50 AM64 °FPassing clouds.5 mph94%30.18 "HgN/A
Weather by CustomWeather, © 2015

See weather overviewHow to use our weather pages